Flag for China Weather past 2 weeks in Nanning, Guangxi, China

Now
90 °F

Scattered clouds.


Feels Like: 98 °F
Forecast: 76 / 89 °F
Wind: 3 mph from North

Location: Nanning Airport

Current Time: Aug 22, 2014 at 4:31:45 PM

Latest Report: Aug 22, 2014 at 3:00 PM


Visibility: N/A

Pressure: 29.77 "Hg

Humidity: 59%

Dew point: 73 °F

Location of NanningLocation

Historic Weather in Nanning — Graph

°F

Nanning temperature yesterday

Maximum temperature yesterday: 88 °F (at 2:00 PM)
Minimum temperature yesterday: 75 °F (at 12:00 AM)
Average temperature yesterday: 80 °F

Past Weeks' High & Low Weather Summary

 TemperatureHumidityPressure
High93 °F (Aug 10, 2:00 PM)100% (Aug 12, 11:00 PM)29.89 "Hg (Aug 12, 11:00 PM)
Low72 °F (Aug 14, 5:00 AM)56% (Aug 10, 2:00 PM)29.47 "Hg (Aug 11, 5:00 PM)
Average80 °F85%29.69 "Hg
* Reported Aug 7 3:00 PM — Aug 22 3:00 PM, Nanning, Weather by CustomWeather, © 2014

Note: Actual official high and low records may vary slightly from our data, if they occured in-between our weather recording intervals... More about our weather records

Advertising

Nanning weather history for previous 24 hours

 ConditionsComfort  
Time TempWeatherWind HumidityBarometerVisibility
3:00 PM
Aug 22
90 °FScattered clouds.3 mph59%29.77 "HgN/A
2:00 PM90 °FScattered clouds.6 mph63%29.80 "HgN/A
1:00 PM90 °FScattered clouds.3 mph59%29.83 "HgN/A
12:00 PM86 °FScattered clouds.3 mph66%29.83 "HgN/A
11:00 AM86 °FScattered clouds.3 mph66%29.86 "HgN/A
10:00 AM84 °FPassing clouds.1 mph74%29.86 "HgN/A
9:00 AM82 °FPassing clouds.1 mph79%29.86 "HgN/A
8:00 AM79 °FScattered clouds.1 mph84%29.86 "HgN/A
7:00 AM77 °FScattered clouds.1 mph89%29.83 "HgN/A
6:00 AM75 °FPassing clouds.No wind94%29.83 "HgN/A
5:00 AM77 °FPassing clouds.1 mph89%29.80 "HgN/A
4:00 AM77 °FPassing clouds.1 mph89%29.80 "HgN/A
3:00 AM75 °FPassing clouds.No wind94%29.83 "HgN/A
2:00 AM77 °FPassing clouds.3 mph89%29.83 "HgN/A
1:00 AM77 °FPassing clouds.1 mph89%29.83 "HgN/A
12:00 AM77 °FPassing clouds.1 mph89%29.83 "HgN/A
11:00 PM
Aug 21
79 °FPassing clouds.3 mph89%29.83 "HgN/A
10:00 PM79 °FClear.1 mph89%29.83 "Hg10 mi
9:00 PM79 °FPassing clouds.3 mph84%29.80 "HgN/A
8:00 PM81 °FClear.3 mph84%29.77 "Hg10 mi
7:00 PM82 °FSunny.3 mph79%29.74 "Hg10 mi
6:00 PM84 °FPassing clouds.3 mph74%29.74 "HgN/A
5:00 PM84 °FPassing clouds.6 mph70%29.74 "HgN/A
4:00 PM86 °FScattered clouds.8 mph70%29.77 "HgN/A
Weather by CustomWeather, © 2014

See weather overviewHow to use our weather pages